contact:dominique.lefevre@mio.osupytheas.fr, maurice.libes@osupytheas.fr, didier.mallarino@osupytheas.fr
Project:EMSO http://www.emso-fr.org/EMSO-France
Depth: 2436.0 m
Title:EMSO Ligure Ouest : Data MII capteur MICROCAT
DateTime_Computer,Latitude,Longitude,Temperature,Conductivity,Pressure,DateTime_Instrument
DateTime_Computer,Latitude,Longitude,degC,S m-1,dbar,DateTime_Instrument
2022-01-03T00:00:14Z,42.805,6.029,13.3033,4.60102,2470.366,2022-1-03T02:01:44Z
2022-01-03T00:03:17Z,42.805,6.029,13.3046,4.60093,2470.297,2022-1-03T02:04:47Z
2022-01-03T00:06:20Z,42.805,6.029,13.3037,4.60110,2470.334,2022-1-03T02:07:50Z
2022-01-03T00:09:23Z,42.805,6.029,13.3036,4.60088,2470.334,2022-1-03T02:10:53Z
2022-01-03T00:12:26Z,42.805,6.029,13.3027,4.60060,2470.31,2022-1-03T02:13:56Z
2022-01-03T00:15:29Z,42.805,6.029,13.3043,4.60057,2470.334,2022-1-03T02:16:59Z
2022-01-03T00:18:33Z,42.805,6.029,13.3014,4.60074,2470.31,2022-1-03T02:20:03Z
2022-01-03T00:21:36Z,42.805,6.029,13.3028,4.60064,2470.297,2022-1-03T02:23:06Z
2022-01-03T00:24:39Z,42.805,6.029,13.3020,4.60097,2470.32,2022-1-03T02:26:09Z
2022-01-03T00:27:42Z,42.805,6.029,13.3031,4.60079,2470.273,2022-1-03T02:29:12Z
2022-01-03T00:30:45Z,42.805,6.029,13.3033,4.60052,2470.334,2022-1-03T02:32:15Z
2022-01-03T00:33:48Z,42.805,6.029,13.3021,4.60059,2470.31,2022-1-03T02:35:18Z
2022-01-03T00:36:51Z,42.805,6.029,13.3017,4.60098,2470.334,2022-1-03T02:38:21Z
2022-01-03T00:39:54Z,42.805,6.029,13.3014,4.60078,2470.334,2022-1-03T02:41:24Z
2022-01-03T00:42:58Z,42.805,6.029,13.3021,4.60088,2470.287,2022-1-03T02:44:28Z
2022-01-03T00:46:01Z,42.805,6.029,13.3033,4.60064,2470.32,2022-1-03T02:47:31Z
2022-01-03T00:49:04Z,42.805,6.029,13.3031,4.60076,2470.273,2022-1-03T02:50:34Z
2022-01-03T00:52:07Z,42.805,6.029,13.3024,4.60103,2470.273,2022-1-03T02:53:37Z
2022-01-03T00:55:10Z,42.805,6.029,13.3041,4.60105,2470.31,2022-1-03T02:56:40Z
2022-01-03T00:58:13Z,42.805,6.029,13.3028,4.60109,2470.273,2022-1-03T02:59:43Z
2022-01-03T01:01:16Z,42.805,6.029,13.3015,4.60084,2470.287,2022-1-03T03:02:46Z
2022-01-03T01:04:19Z,42.805,6.029,13.3024,4.60104,2470.31,2022-1-03T03:05:49Z
2022-01-03T01:07:22Z,42.805,6.029,13.3007,4.60098,2470.31,2022-1-03T03:08:52Z
2022-01-03T01:10:26Z,42.805,6.029,13.3012,4.60103,2470.297,2022-1-03T03:11:56Z
2022-01-03T01:13:29Z,42.805,6.029,13.3020,4.60104,2470.273,2022-1-03T03:14:59Z
2022-01-03T01:16:32Z,42.805,6.029,13.3014,4.60091,2470.264,2022-1-03T03:18:02Z
2022-01-03T01:19:35Z,42.805,6.029,13.3021,4.60082,2470.297,2022-1-03T03:21:05Z
2022-01-03T01:22:38Z,42.805,6.029,13.3014,4.60090,2470.32,2022-1-03T03:24:08Z
2022-01-03T01:25:41Z,42.805,6.029,13.3006,4.60081,2470.287,2022-1-03T03:27:11Z
2022-01-03T01:28:44Z,42.805,6.029,13.3019,4.60094,2470.297,2022-1-03T03:30:14Z
2022-01-03T01:31:47Z,42.805,6.029,13.3023,4.60112,2470.31,2022-1-03T03:33:17Z
2022-01-03T01:34:51Z,42.805,6.029,13.3021,4.60087,2470.273,2022-1-03T03:36:21Z
2022-01-03T01:37:54Z,42.805,6.029,13.3037,4.60103,2470.297,2022-1-03T03:39:24Z
2022-01-03T01:40:57Z,42.805,6.029,13.3041,4.60120,2470.32,2022-1-03T03:42:27Z
2022-01-03T01:44:00Z,42.805,6.029,13.3019,4.60091,2470.343,2022-1-03T03:45:30Z
2022-01-03T01:47:03Z,42.805,6.029,13.3028,4.60095,2470.32,2022-1-03T03:48:33Z
2022-01-03T01:50:06Z,42.805,6.029,13.3037,4.60114,2470.32,2022-1-03T03:51:36Z
2022-01-03T01:53:09Z,42.805,6.029,13.3036,4.60137,2470.334,2022-1-03T03:54:39Z
2022-01-03T01:56:12Z,42.805,6.029,13.3035,4.60085,2470.334,2022-1-03T03:57:42Z
2022-01-03T01:59:15Z,42.805,6.029,13.3038,4.60068,2470.32,2022-1-03T04:00:45Z
2022-01-03T02:02:19Z,42.805,6.029,13.3042,4.60097,2470.297,2022-1-03T04:03:49Z
2022-01-03T02:05:22Z,42.805,6.029,13.3044,4.60084,2470.334,2022-1-03T04:06:52Z
2022-01-03T02:08:25Z,42.805,6.029,13.3030,4.60074,2470.297,2022-1-03T04:09:55Z
2022-01-03T02:11:28Z,42.805,6.029,13.3015,4.60079,2470.297,2022-1-03T04:12:58Z
2022-01-03T02:14:31Z,42.805,6.029,13.3029,4.60125,2470.31,2022-1-03T04:16:01Z
2022-01-03T02:17:34Z,42.805,6.029,13.3023,4.60104,2470.31,2022-1-03T04:19:04Z
2022-01-03T02:20:37Z,42.805,6.029,13.3029,4.60121,2470.287,2022-1-03T04:22:07Z
2022-01-03T02:23:40Z,42.805,6.029,13.3040,4.60089,2470.31,2022-1-03T04:25:10Z
2022-01-03T02:26:44Z,42.805,6.029,13.3030,4.60074,2470.32,2022-1-03T04:28:14Z
2022-01-03T02:29:47Z,42.805,6.029,13.3044,4.60080,2470.357,2022-1-03T04:31:17Z
2022-01-03T02:32:50Z,42.805,6.029,13.3041,4.60083,2470.334,2022-1-03T04:34:20Z
2022-01-03T02:35:53Z,42.805,6.029,13.3032,4.60064,2470.32,2022-1-03T04:37:23Z
2022-01-03T02:38:56Z,42.805,6.029,13.3053,4.60106,2470.297,2022-1-03T04:40:26Z
2022-01-03T02:41:59Z,42.805,6.029,13.3010,4.60035,2470.366,2022-1-03T04:43:29Z
2022-01-03T02:45:02Z,42.805,6.029,13.3009,4.60028,2470.32,2022-1-03T04:46:32Z
2022-01-03T02:48:05Z,42.805,6.029,13.3007,4.60031,2470.357,2022-1-03T04:49:35Z
2022-01-03T02:51:08Z,42.805,6.029,13.3014,4.60057,2470.334,2022-1-03T04:52:39Z
2022-01-03T02:54:12Z,42.805,6.029,13.3034,4.60049,2470.334,2022-1-03T04:55:42Z
2022-01-03T02:57:15Z,42.805,6.029,13.3000,4.60033,2470.31,2022-1-03T04:58:45Z
2022-01-03T03:00:18Z,42.805,6.029,13.3021,4.60064,2470.343,2022-1-03T05:01:48Z
2022-01-03T03:03:21Z,42.805,6.029,13.3036,4.60053,2470.334,2022-1-03T05:04:51Z
2022-01-03T03:06:24Z,42.805,6.029,13.3037,4.60087,2470.343,2022-1-03T05:07:54Z
2022-01-03T03:09:27Z,42.805,6.029,13.3039,4.60059,2470.32,2022-1-03T05:10:57Z
2022-01-03T03:12:30Z,42.805,6.029,13.3037,4.60062,2470.357,2022-1-03T05:14:00Z
2022-01-03T03:15:33Z,42.805,6.029,13.3040,4.60052,2470.32,2022-1-03T05:17:03Z
2022-01-03T03:18:37Z,42.805,6.029,13.3027,4.60099,2470.357,2022-1-03T05:20:07Z
2022-01-03T03:21:40Z,42.805,6.029,13.3040,4.60066,2470.357,2022-1-03T05:23:10Z
2022-01-03T03:24:43Z,42.805,6.029,13.3026,4.60050,2470.357,2022-1-03T05:26:13Z
2022-01-03T03:27:46Z,42.805,6.029,13.3034,4.60079,2470.343,2022-1-03T05:29:16Z
2022-01-03T03:30:49Z,42.805,6.029,13.3028,4.60049,2470.366,2022-1-03T05:32:19Z
2022-01-03T03:33:52Z,42.805,6.029,13.3010,4.60069,2470.357,2022-1-03T05:35:22Z
2022-01-03T03:36:55Z,42.805,6.029,13.3036,4.60049,2470.343,2022-1-03T05:38:25Z
2022-01-03T03:39:58Z,42.805,6.029,13.3026,4.60052,2470.366,2022-1-03T05:41:28Z
2022-01-03T03:43:02Z,42.805,6.029,13.3004,4.60030,2470.39,2022-1-03T05:44:32Z
2022-01-03T03:46:05Z,42.805,6.029,13.2999,4.60033,2470.366,2022-1-03T05:47:35Z
2022-01-03T03:49:08Z,42.805,6.029,13.3002,4.60029,2470.343,2022-1-03T05:50:38Z
2022-01-03T03:52:11Z,42.805,6.029,13.3000,4.60027,2470.427,2022-1-03T05:53:41Z
2022-01-03T03:55:14Z,42.805,6.029,13.2997,4.60029,2470.404,2022-1-03T05:56:44Z
2022-01-03T03:58:17Z,42.805,6.029,13.3003,4.60026,2470.357,2022-1-03T05:59:47Z
2022-01-03T04:01:20Z,42.805,6.029,13.2999,4.60026,2470.404,2022-1-03T06:02:50Z
2022-01-03T04:04:23Z,42.805,6.029,13.3000,4.60024,2470.366,2022-1-03T06:05:53Z
2022-01-03T04:07:26Z,42.805,6.029,13.2998,4.60024,2470.38,2022-1-03T06:08:56Z
2022-01-03T04:10:30Z,42.805,6.029,13.2998,4.60027,2470.404,2022-1-03T06:12:00Z
2022-01-03T04:13:33Z,42.805,6.029,13.2995,4.60026,2470.39,2022-1-03T06:15:03Z
2022-01-03T04:16:36Z,42.805,6.029,13.2998,4.60025,2470.427,2022-1-03T06:18:06Z
2022-01-03T04:19:39Z,42.805,6.029,13.3003,4.60026,2470.413,2022-1-03T06:21:09Z
2022-01-03T04:22:42Z,42.805,6.029,13.2998,4.60026,2470.413,2022-1-03T06:24:12Z
2022-01-03T04:25:45Z,42.805,6.029,13.2994,4.60024,2470.413,2022-1-03T06:27:15Z
2022-01-03T04:28:48Z,42.805,6.029,13.2996,4.60026,2470.45,2022-1-03T06:30:18Z
2022-01-03T04:31:51Z,42.805,6.029,13.3000,4.60024,2470.413,2022-1-03T06:33:21Z
2022-01-03T04:34:55Z,42.805,6.029,13.2999,4.60024,2470.413,2022-1-03T06:36:25Z
2022-01-03T04:37:58Z,42.805,6.029,13.3000,4.60025,2470.427,2022-1-03T06:39:28Z
2022-01-03T04:41:01Z,42.805,6.029,13.3000,4.60026,2470.45,2022-1-03T06:42:31Z
2022-01-03T04:44:04Z,42.805,6.029,13.3002,4.60026,2470.437,2022-1-03T06:45:34Z
2022-01-03T04:47:07Z,42.805,6.029,13.2999,4.60027,2470.437,2022-1-03T06:48:37Z
2022-01-03T04:50:10Z,42.805,6.029,13.2998,4.60026,2470.413,2022-1-03T06:51:40Z
2022-01-03T04:53:13Z,42.805,6.029,13.3000,4.60025,2470.413,2022-1-03T06:54:43Z
2022-01-03T04:56:16Z,42.805,6.029,13.2998,4.60027,2470.483,2022-1-03T06:57:46Z
2022-01-03T04:59:19Z,42.805,6.029,13.2998,4.60026,2470.45,2022-1-03T07:00:49Z
2022-01-03T05:02:23Z,42.805,6.029,13.2996,4.60027,2470.437,2022-1-03T07:03:53Z
2022-01-03T05:05:26Z,42.805,6.029,13.2999,4.60029,2470.437,2022-1-03T07:06:56Z
2022-01-03T05:08:29Z,42.805,6.029,13.3000,4.60031,2470.46,2022-1-03T07:09:59Z
2022-01-03T05:11:32Z,42.805,6.029,13.2996,4.60028,2470.497,2022-1-03T07:13:02Z
2022-01-03T05:14:35Z,42.805,6.029,13.2999,4.60027,2470.474,2022-1-03T07:16:05Z
2022-01-03T05:17:38Z,42.805,6.029,13.3002,4.60031,2470.497,2022-1-03T07:19:08Z
2022-01-03T05:20:41Z,42.805,6.029,13.2998,4.60026,2470.46,2022-1-03T07:22:11Z
2022-01-03T05:23:44Z,42.805,6.029,13.2997,4.60025,2470.46,2022-1-03T07:25:14Z
2022-01-03T05:26:48Z,42.805,6.029,13.2996,4.60029,2470.46,2022-1-03T07:28:18Z
2022-01-03T05:29:51Z,42.805,6.029,13.2998,4.60025,2470.474,2022-1-03T07:31:21Z
2022-01-03T05:32:54Z,42.805,6.029,13.2997,4.60029,2470.474,2022-1-03T07:34:24Z
2022-01-03T05:35:57Z,42.805,6.029,13.3004,4.60027,2470.474,2022-1-03T07:37:27Z
2022-01-03T05:39:00Z,42.805,6.029,13.2995,4.60027,2470.46,2022-1-03T07:40:30Z
2022-01-03T05:42:03Z,42.805,6.029,13.2995,4.60028,2470.483,2022-1-03T07:43:33Z
2022-01-03T05:45:06Z,42.805,6.029,13.3000,4.60025,2470.497,2022-1-03T07:46:36Z
2022-01-03T05:48:09Z,42.805,6.029,13.3000,4.60027,2470.483,2022-1-03T07:49:39Z
2022-01-03T05:51:12Z,42.805,6.029,13.2999,4.60024,2470.437,2022-1-03T07:52:43Z
2022-01-03T05:54:16Z,42.805,6.029,13.3001,4.60024,2470.483,2022-1-03T07:55:46Z
2022-01-03T05:57:19Z,42.805,6.029,13.2996,4.60025,2470.483,2022-1-03T07:58:49Z
2022-01-03T06:00:22Z,42.805,6.029,13.2998,4.60026,2470.497,2022-1-03T08:01:52Z
2022-01-03T06:03:25Z,42.805,6.029,13.3001,4.60027,2470.507,2022-1-03T08:04:55Z
2022-01-03T06:06:28Z,42.805,6.029,13.3000,4.60025,2470.497,2022-1-03T08:07:58Z
2022-01-03T06:09:31Z,42.805,6.029,13.3004,4.60026,2470.483,2022-1-03T08:11:01Z
2022-01-03T06:12:34Z,42.805,6.029,13.2998,4.60024,2470.497,2022-1-03T08:14:04Z
2022-01-03T06:15:37Z,42.805,6.029,13.3002,4.60026,2470.507,2022-1-03T08:17:07Z
2022-01-03T06:18:41Z,42.805,6.029,13.3000,4.60026,2470.46,2022-1-03T08:20:11Z
2022-01-03T06:21:44Z,42.805,6.029,13.3004,4.60030,2470.507,2022-1-03T08:23:14Z
2022-01-03T06:24:47Z,42.805,6.029,13.3000,4.60026,2470.483,2022-1-03T08:26:17Z
2022-01-03T06:27:50Z,42.805,6.029,13.2998,4.60028,2470.483,2022-1-03T08:29:20Z
2022-01-03T06:30:53Z,42.805,6.029,13.2998,4.60029,2470.46,2022-1-03T08:32:23Z
2022-01-03T06:33:56Z,42.805,6.029,13.2997,4.60026,2470.483,2022-1-03T08:35:26Z
2022-01-03T06:36:59Z,42.805,6.029,13.3008,4.60029,2470.497,2022-1-03T08:38:29Z
2022-01-03T06:40:02Z,42.805,6.029,13.3004,4.60028,2470.483,2022-1-03T08:41:32Z
2022-01-03T06:43:05Z,42.805,6.029,13.3000,4.60026,2470.497,2022-1-03T08:44:36Z
2022-01-03T06:46:09Z,42.805,6.029,13.2998,4.60025,2470.497,2022-1-03T08:47:39Z
2022-01-03T06:49:12Z,42.805,6.029,13.2999,4.60026,2470.483,2022-1-03T08:50:42Z
2022-01-03T06:52:15Z,42.805,6.029,13.3002,4.60026,2470.483,2022-1-03T08:53:45Z
2022-01-03T06:55:18Z,42.805,6.029,13.3004,4.60026,2470.483,2022-1-03T08:56:48Z
2022-01-03T06:58:21Z,42.805,6.029,13.3002,4.60026,2470.53,2022-1-03T08:59:51Z
2022-01-03T07:01:24Z,42.805,6.029,13.3039,4.60064,2470.46,2022-1-03T09:02:54Z
2022-01-03T07:04:27Z,42.805,6.029,13.3004,4.60032,2470.483,2022-1-03T09:05:57Z
2022-01-03T07:07:30Z,42.805,6.029,13.3017,4.60046,2470.497,2022-1-03T09:09:00Z
2022-01-03T07:10:34Z,42.805,6.029,13.3017,4.60044,2470.483,2022-1-03T09:12:04Z
2022-01-03T07:13:37Z,42.805,6.029,13.3026,4.60060,2470.46,2022-1-03T09:15:07Z
2022-01-03T07:16:40Z,42.805,6.029,13.3009,4.60057,2470.497,2022-1-03T09:18:10Z
2022-01-03T07:19:43Z,42.805,6.029,13.3020,4.60052,2470.474,2022-1-03T09:21:13Z
2022-01-03T07:22:46Z,42.805,6.029,13.3019,4.60054,2470.483,2022-1-03T09:24:16Z
2022-01-03T07:25:49Z,42.805,6.029,13.3002,4.60026,2470.53,2022-1-03T09:27:19Z
2022-01-03T07:28:52Z,42.805,6.029,13.3030,4.60035,2470.544,2022-1-03T09:30:22Z
2022-01-03T07:31:55Z,42.805,6.029,13.3031,4.60038,2470.483,2022-1-03T09:33:25Z
2022-01-03T07:34:59Z,42.805,6.029,13.3012,4.60027,2470.516,2022-1-03T09:36:29Z
2022-01-03T07:38:02Z,42.805,6.029,13.3032,4.60042,2470.52,2022-1-03T09:39:32Z
2022-01-03T07:41:05Z,42.805,6.029,13.3011,4.60034,2470.483,2022-1-03T09:42:35Z
2022-01-03T07:44:08Z,42.805,6.029,13.3026,4.60051,2470.483,2022-1-03T09:45:38Z
2022-01-03T07:47:11Z,42.805,6.029,13.3000,4.60029,2470.483,2022-1-03T09:48:41Z
2022-01-03T07:50:14Z,42.805,6.029,13.3006,4.60036,2470.483,2022-1-03T09:51:44Z
2022-01-03T07:53:17Z,42.805,6.029,13.3038,4.60045,2470.507,2022-1-03T09:54:47Z
2022-01-03T07:56:20Z,42.805,6.029,13.3002,4.60046,2470.507,2022-1-03T09:57:50Z
2022-01-03T07:59:23Z,42.805,6.029,13.3015,4.60050,2470.507,2022-1-03T10:00:53Z
2022-01-03T08:02:27Z,42.805,6.029,13.3038,4.60038,2470.507,2022-1-03T10:03:57Z
2022-01-03T08:05:30Z,42.805,6.029,13.3014,4.60033,2470.474,2022-1-03T10:07:00Z
2022-01-03T08:08:33Z,42.805,6.029,13.3006,4.60028,2470.483,2022-1-03T10:10:03Z
2022-01-03T08:11:36Z,42.805,6.029,13.3002,4.60026,2470.53,2022-1-03T10:13:06Z
2022-01-03T08:14:39Z,42.805,6.029,13.3012,4.60032,2470.497,2022-1-03T10:16:09Z
2022-01-03T08:17:42Z,42.805,6.029,13.3019,4.60044,2470.497,2022-1-03T10:19:12Z
2022-01-03T08:20:45Z,42.805,6.029,13.3031,4.60035,2470.52,2022-1-03T10:22:15Z
2022-01-03T08:23:48Z,42.805,6.029,13.3024,4.60043,2470.47,2022-1-03T10:25:18Z
2022-01-03T08:26:52Z,42.805,6.029,13.3024,4.60037,2470.474,2022-1-03T10:28:22Z
2022-01-03T08:29:55Z,42.805,6.029,13.3006,4.60031,2470.53,2022-1-03T10:31:25Z
2022-01-03T08:32:58Z,42.805,6.029,13.2999,4.60039,2470.483,2022-1-03T10:34:28Z
2022-01-03T08:36:01Z,42.805,6.029,13.3002,4.60033,2470.483,2022-1-03T10:37:31Z
2022-01-03T08:39:04Z,42.805,6.029,13.3011,4.60035,2470.497,2022-1-03T10:40:34Z
2022-01-03T08:42:07Z,42.805,6.029,13.3020,4.60049,2470.483,2022-1-03T10:43:37Z
2022-01-03T08:45:10Z,42.805,6.029,13.3020,4.60042,2470.497,2022-1-03T10:46:40Z
2022-01-03T08:48:13Z,42.805,6.029,13.3028,4.60044,2470.483,2022-1-03T10:49:43Z
2022-01-03T08:51:17Z,42.805,6.029,13.3026,4.60059,2470.507,2022-1-03T10:52:47Z
2022-01-03T08:54:20Z,42.805,6.029,13.3033,4.60049,2470.507,2022-1-03T10:55:50Z
2022-01-03T08:57:23Z,42.805,6.029,13.3022,4.60056,2470.52,2022-1-03T10:58:53Z
2022-01-03T09:00:26Z,42.805,6.029,13.3030,4.60070,2470.46,2022-1-03T11:01:56Z
2022-01-03T09:03:29Z,42.805,6.029,13.3025,4.60073,2470.53,2022-1-03T11:04:59Z
2022-01-03T09:06:32Z,42.805,6.029,13.3029,4.60077,2470.46,2022-1-03T11:08:02Z
2022-01-03T09:09:35Z,42.805,6.029,13.3036,4.60068,2470.474,2022-1-03T11:11:05Z
2022-01-03T09:12:38Z,42.805,6.029,13.3021,4.60055,2470.497,2022-1-03T11:14:08Z
2022-01-03T09:15:42Z,42.805,6.029,13.3020,4.60050,2470.483,2022-1-03T11:17:12Z
2022-01-03T09:18:45Z,42.805,6.029,13.3024,4.60085,2470.46,2022-1-03T11:20:15Z
2022-01-03T09:21:48Z,42.805,6.029,13.3019,4.60069,2470.507,2022-1-03T11:23:18Z
2022-01-03T09:24:51Z,42.805,6.029,13.3027,4.60057,2470.483,2022-1-03T11:26:21Z
2022-01-03T09:27:54Z,42.805,6.029,13.3025,4.60055,2470.497,2022-1-03T11:29:24Z
2022-01-03T09:30:57Z,42.805,6.029,13.3016,4.60081,2470.46,2022-1-03T11:32:27Z
2022-01-03T09:34:00Z,42.805,6.029,13.3019,4.60053,2470.483,2022-1-03T11:35:30Z
2022-01-03T09:37:03Z,42.805,6.029,13.3027,4.60041,2470.474,2022-1-03T11:38:33Z
2022-01-03T09:40:07Z,42.805,6.029,13.3024,4.60058,2470.46,2022-1-03T11:41:37Z
2022-01-03T09:43:10Z,42.805,6.029,13.3019,4.60049,2470.497,2022-1-03T11:44:40Z
2022-01-03T09:46:13Z,42.805,6.029,13.3022,4.60046,2470.483,2022-1-03T11:47:43Z
2022-01-03T09:49:16Z,42.805,6.029,13.3024,4.60046,2470.437,2022-1-03T11:50:46Z
2022-01-03T09:52:19Z,42.805,6.029,13.3016,4.60061,2470.474,2022-1-03T11:53:49Z
2022-01-03T09:55:22Z,42.805,6.029,13.3026,4.60057,2470.45,2022-1-03T11:56:52Z
2022-01-03T09:58:25Z,42.805,6.029,13.3028,4.60069,2470.46,2022-1-03T11:59:55Z
2022-01-03T10:01:28Z,42.805,6.029,13.3015,4.60071,2470.413,2022-1-03T12:02:59Z
2022-01-03T10:04:32Z,42.805,6.029,13.3023,4.60062,2470.437,2022-1-03T12:06:02Z
2022-01-03T10:07:35Z,42.805,6.029,13.3009,4.60071,2470.437,2022-1-03T12:09:05Z
2022-01-03T10:10:38Z,42.805,6.029,13.3024,4.60040,2470.46,2022-1-03T12:12:08Z
2022-01-03T10:13:41Z,42.805,6.029,13.3021,4.60067,2470.437,2022-1-03T12:15:11Z
2022-01-03T10:16:44Z,42.805,6.029,13.3019,4.60068,2470.45,2022-1-03T12:18:14Z
2022-01-03T10:19:47Z,42.805,6.029,13.3016,4.60060,2470.474,2022-1-03T12:21:17Z
2022-01-03T10:22:50Z,42.805,6.029,13.3021,4.60096,2470.39,2022-1-03T12:24:20Z
2022-01-03T10:25:53Z,42.805,6.029,13.3014,4.60075,2470.39,2022-1-03T12:27:23Z
2022-01-03T10:28:57Z,42.805,6.029,13.3024,4.60079,2470.437,2022-1-03T12:30:27Z
2022-01-03T10:32:00Z,42.805,6.029,13.3019,4.60052,2470.413,2022-1-03T12:33:30Z
2022-01-03T10:35:03Z,42.805,6.029,13.3011,4.60062,2470.427,2022-1-03T12:36:33Z
2022-01-03T10:38:06Z,42.805,6.029,13.3010,4.60057,2470.413,2022-1-03T12:39:36Z
2022-01-03T10:41:09Z,42.805,6.029,13.3009,4.60056,2470.413,2022-1-03T12:42:39Z
2022-01-03T10:44:12Z,42.805,6.029,13.3009,4.60055,2470.38,2022-1-03T12:45:42Z
2022-01-03T10:47:15Z,42.805,6.029,13.3016,4.60072,2470.413,2022-1-03T12:48:45Z
2022-01-03T10:50:18Z,42.805,6.029,13.3021,4.60081,2470.39,2022-1-03T12:51:48Z
2022-01-03T10:53:22Z,42.805,6.029,13.3010,4.60074,2470.404,2022-1-03T12:54:52Z
2022-01-03T10:56:25Z,42.805,6.029,13.3011,4.60070,2470.437,2022-1-03T12:57:55Z
2022-01-03T10:59:28Z,42.805,6.029,13.3009,4.60075,2470.39,2022-1-03T13:00:58Z
2022-01-03T11:02:31Z,42.805,6.029,13.3010,4.60068,2470.39,2022-1-03T13:04:01Z
2022-01-03T11:05:34Z,42.805,6.029,13.3015,4.60062,2470.38,2022-1-03T13:07:04Z
2022-01-03T11:08:37Z,42.805,6.029,13.3009,4.60052,2470.38,2022-1-03T13:10:07Z
2022-01-03T11:11:40Z,42.805,6.029,13.3011,4.60074,2470.366,2022-1-03T13:13:10Z
2022-01-03T11:14:43Z,42.805,6.029,13.3011,4.60068,2470.366,2022-1-03T13:16:13Z
2022-01-03T11:17:47Z,42.805,6.029,13.3009,4.60073,2470.39,2022-1-03T13:19:17Z
2022-01-03T11:20:50Z,42.805,6.029,13.3011,4.60066,2470.366,2022-1-03T13:22:20Z
2022-01-03T11:23:53Z,42.805,6.029,13.3012,4.60076,2470.404,2022-1-03T13:25:23Z
2022-01-03T11:26:56Z,42.805,6.029,13.3011,4.60073,2470.38,2022-1-03T13:28:26Z
2022-01-03T11:29:59Z,42.805,6.029,13.3011,4.60061,2470.38,2022-1-03T13:31:29Z
2022-01-03T11:33:02Z,42.805,6.029,13.3021,4.60077,2470.39,2022-1-03T13:34:32Z
2022-01-03T11:36:05Z,42.805,6.029,13.3016,4.60083,2470.366,2022-1-03T13:37:35Z
2022-01-03T11:39:08Z,42.805,6.029,13.3011,4.60058,2470.366,2022-1-03T13:40:38Z
2022-01-03T11:42:12Z,42.805,6.029,13.3013,4.60048,2470.32,2022-1-03T13:43:42Z
2022-01-03T11:45:15Z,42.805,6.029,13.3016,4.60088,2470.334,2022-1-03T13:46:45Z
2022-01-03T11:48:18Z,42.805,6.029,13.3011,4.60069,2470.297,2022-1-03T13:49:48Z
2022-01-03T11:51:21Z,42.805,6.029,13.3015,4.60068,2470.32,2022-1-03T13:52:51Z
2022-01-03T11:54:24Z,42.805,6.029,13.3012,4.60069,2470.334,2022-1-03T13:55:54Z
2022-01-03T11:57:27Z,42.805,6.029,13.3011,4.60083,2470.297,2022-1-03T13:58:57Z
2022-01-03T12:00:30Z,42.805,6.029,13.3019,4.60074,2470.297,2022-1-03T14:02:00Z
2022-01-03T12:03:33Z,42.805,6.029,13.3023,4.60085,2470.32,2022-1-03T14:05:03Z
2022-01-03T12:06:37Z,42.805,6.029,13.3026,4.60091,2470.287,2022-1-03T14:08:07Z
2022-01-03T12:09:40Z,42.805,6.029,13.3024,4.60108,2470.297,2022-1-03T14:11:10Z
2022-01-03T12:12:43Z,42.805,6.029,13.3014,4.60087,2470.32,2022-1-03T14:14:13Z
2022-01-03T12:15:46Z,42.805,6.029,13.3022,4.60084,2470.273,2022-1-03T14:17:16Z
2022-01-03T12:18:49Z,42.805,6.029,13.3020,4.60069,2470.25,2022-1-03T14:20:19Z
2022-01-03T12:21:52Z,42.805,6.029,13.3011,4.60057,2470.31,2022-1-03T14:23:22Z
2022-01-03T12:24:55Z,42.805,6.029,13.3021,4.60068,2470.264,2022-1-03T14:26:25Z
2022-01-03T12:27:58Z,42.805,6.029,13.3015,4.60072,2470.264,2022-1-03T14:29:28Z
2022-01-03T12:31:02Z,42.805,6.029,13.3016,4.60067,2470.25,2022-1-03T14:32:32Z
2022-01-03T12:34:05Z,42.805,6.029,13.3014,4.60072,2470.25,2022-1-03T14:35:35Z
2022-01-03T12:37:08Z,42.805,6.029,13.3015,4.60071,2470.32,2022-1-03T14:38:38Z
2022-01-03T12:40:11Z,42.805,6.029,13.3029,4.60063,2470.273,2022-1-03T14:41:41Z
2022-01-03T12:43:14Z,42.805,6.029,13.3014,4.60064,2470.25,2022-1-03T14:44:44Z
2022-01-03T12:46:17Z,42.805,6.029,13.3015,4.60084,2470.227,2022-1-03T14:47:47Z
2022-01-03T12:49:20Z,42.805,6.029,13.3020,4.60084,2470.25,2022-1-03T14:50:50Z
2022-01-03T12:52:23Z,42.805,6.029,13.3021,4.60070,2470.25,2022-1-03T14:53:53Z
2022-01-03T12:55:27Z,42.805,6.029,13.3007,4.60062,2470.273,2022-1-03T14:56:57Z
2022-01-03T12:58:30Z,42.805,6.029,13.3014,4.60057,2470.227,2022-1-03T15:00:00Z
2022-01-03T13:01:33Z,42.805,6.029,13.3014,4.60077,2470.24,2022-1-03T15:03:03Z
2022-01-03T13:04:36Z,42.805,6.029,13.3019,4.60071,2470.25,2022-1-03T15:06:06Z
2022-01-03T13:07:39Z,42.805,6.029,13.3022,4.60066,2470.203,2022-1-03T15:09:09Z
2022-01-03T13:10:42Z,42.805,6.029,13.3022,4.60088,2470.24,2022-1-03T15:12:12Z
2022-01-03T13:13:45Z,42.805,6.029,13.3015,4.60066,2470.24,2022-1-03T15:15:15Z
2022-01-03T13:16:48Z,42.805,6.029,13.3015,4.60075,2470.25,2022-1-03T15:18:18Z
2022-01-03T13:19:51Z,42.805,6.029,13.3015,4.60076,2470.203,2022-1-03T15:21:21Z
2022-01-03T13:22:55Z,42.805,6.029,13.3021,4.60098,2470.194,2022-1-03T15:24:25Z
2022-01-03T13:25:58Z,42.805,6.029,13.3011,4.60063,2470.217,2022-1-03T15:27:28Z
2022-01-03T13:29:01Z,42.805,6.029,13.3019,4.60072,2470.18,2022-1-03T15:30:31Z
2022-01-03T13:32:04Z,42.805,6.029,13.3021,4.60075,2470.227,2022-1-03T15:33:34Z
2022-01-03T13:35:07Z,42.805,6.029,13.3015,4.60074,2470.156,2022-1-03T15:36:37Z
2022-01-03T13:38:10Z,42.805,6.029,13.3020,4.60086,2470.203,2022-1-03T15:39:40Z
2022-01-03T13:41:13Z,42.805,6.029,13.3022,4.60073,2470.203,2022-1-03T15:42:43Z
2022-01-03T13:44:17Z,42.805,6.029,13.3021,4.60090,2470.203,2022-1-03T15:45:47Z
2022-01-03T13:47:20Z,42.805,6.029,13.3015,4.60077,2470.18,2022-1-03T15:48:50Z
2022-01-03T13:50:23Z,42.805,6.029,13.3019,4.60074,2470.217,2022-1-03T15:51:53Z
2022-01-03T13:53:26Z,42.805,6.029,13.3014,4.60052,2470.194,2022-1-03T15:54:56Z
2022-01-03T13:56:29Z,42.805,6.029,13.3023,4.60076,2470.166,2022-1-03T15:57:59Z
2022-01-03T13:59:32Z,42.805,6.029,13.3011,4.60064,2470.194,2022-1-03T16:01:02Z
2022-01-03T14:02:35Z,42.805,6.029,13.3014,4.60063,2470.133,2022-1-03T16:04:05Z
2022-01-03T14:05:38Z,42.805,6.029,13.3015,4.60052,2470.18,2022-1-03T16:07:08Z
2022-01-03T14:08:41Z,42.805,6.029,13.3018,4.60058,2470.194,2022-1-03T16:10:11Z
2022-01-03T14:11:45Z,42.805,6.029,13.3015,4.60068,2470.171,2022-1-03T16:13:15Z
2022-01-03T14:14:48Z,42.805,6.029,13.3015,4.60064,2470.194,2022-1-03T16:16:18Z
2022-01-03T14:17:51Z,42.805,6.029,13.3015,4.60050,2470.133,2022-1-03T16:19:21Z
2022-01-03T14:20:54Z,42.805,6.029,13.3015,4.60049,2470.156,2022-1-03T16:22:24Z
2022-01-03T14:23:57Z,42.805,6.029,13.3017,4.60066,2470.147,2022-1-03T16:25:27Z
2022-01-03T14:27:00Z,42.805,6.029,13.3025,4.60064,2470.147,2022-1-03T16:28:30Z
2022-01-03T14:30:03Z,42.805,6.029,13.3016,4.60063,2470.133,2022-1-03T16:31:33Z
2022-01-03T14:33:06Z,42.805,6.029,13.3015,4.60069,2470.194,2022-1-03T16:34:36Z
2022-01-03T14:36:10Z,42.805,6.029,13.3008,4.60062,2470.217,2022-1-03T16:37:40Z
2022-01-03T14:39:13Z,42.805,6.029,13.3017,4.60064,2470.156,2022-1-03T16:40:43Z
2022-01-03T14:42:16Z,42.805,6.029,13.3004,4.60069,2470.156,2022-1-03T16:43:46Z
2022-01-03T14:45:19Z,42.805,6.029,13.3016,4.60083,2470.133,2022-1-03T16:46:49Z
2022-01-03T14:48:22Z,42.805,6.029,13.3021,4.60072,2470.133,2022-1-03T16:49:52Z
2022-01-03T14:51:25Z,42.805,6.029,13.3028,4.60096,2470.133,2022-1-03T16:52:55Z
2022-01-03T14:54:28Z,42.805,6.029,13.3031,4.60081,2470.156,2022-1-03T16:55:58Z
2022-01-03T14:57:31Z,42.805,6.029,13.3007,4.60062,2470.147,2022-1-03T16:59:01Z
2022-01-03T15:00:35Z,42.805,6.029,13.3009,4.60070,2470.11,2022-1-03T17:02:05Z
2022-01-03T15:03:38Z,42.805,6.029,13.3024,4.60071,2470.124,2022-1-03T17:05:08Z
2022-01-03T15:06:41Z,42.805,6.029,13.3028,4.60097,2470.156,2022-1-03T17:08:11Z
2022-01-03T15:09:44Z,42.805,6.029,13.3029,4.60086,2470.147,2022-1-03T17:11:14Z
2022-01-03T15:12:47Z,42.805,6.029,13.3017,4.60078,2470.156,2022-1-03T17:14:17Z